Tracking 19280 objects as of 14-Nov-2018
HD Live streaming from Space Station
objects crossing your sky now

TELECOM 2C

Track TELECOM 2C now!
TELECOM 2C is classified as:


NORAD ID: 23730
Int'l Code: 1995-067A
Perigee: 36,372.0 km
Apogee: 36,548.1 km
Inclination: 11.4 °
Period: 1,470.3 minutes
Semi major axis: 42831 km
RCS: 7.9433 m2 (large)
Launch date: December 6, 1995
Source: France (FR)
Launch site: FRENCH GUIANA (FRGUI)

Commercial telecommunications but also carries the Syracuse II military payload for communications in X-band; will be replaced by Syracuse III dedicated military communications satellite system.
aabbcc
Your satellite tracking list
Your tracking list is empty




NASA's NSSDC Master Catalog

Two Line Element Set (TLE):
1 23730U 95067A   18317.04681881 -.00000165 +00000-0 +00000-0 0  9991
2 23730 011.4244 034.9977 0020559 235.5681 124.1811 00.97941079083301
Source of the keplerian elements: AFSPC